Weather History for Laconia, NH

Change the Weather History Date:

Thursday, December 13, 2012

  Actual Average Record
Temperature  
Mean Temperature 30 °F -  
Max Temperature 39 °F 33 °F 53 °F (2010)
Min Temperature 21 °F 17 °F -2 °F (1988)
Degree Days  
Heating Degree Days 35    
Moisture  
Dew Point 21 °F    
Average Humidity 74    
Maximum Humidity 93    
Minimum Humidity 48    
Precipitation  
Precipitation 0.00 in - - ()
Sea Level Pressure  
Sea Level Pressure 30.34 in    
Wind  
Wind Speed 2 mph (WSW)    
Max Wind Speed 8 mph    
Max Gust Speed -    
Visibility 10 miles    
Events      
Averages and records for this station are not official NWS values.
T = Trace of Precipitation, MM = Missing Value Source: NWS Daily Summary

Daily Weather History Graph

Daily Weather History Graph

Search for Another Location

Airport:

Trip Planner

Search our weather history database for the weather conditions in past years. The results will help you decide how hot, cold, wet, or windy it might be!

Date:

Astronomy

Dec. 13, 2012 Rise Set
Actual Time 7:10 AM EST 4:09 PM EST
Civil Twilight 6:38 AM EST 4:42 PM EST
Nautical Twilight 6:01 AM EST 5:18 PM EST
Astronomical Twilight 5:27 AM EST 5:53 PM EST
Moon 7:15 AM EST (12/13) 4:49 PM EST (12/13)
Length of Visible Light 10h 04m
Length of Day
8h 58m
New Moon, 0% of the Moon is Illuminated
Dec 13
New Moon
Dec 20
First Quarter
Dec 28
Full
Jan 4
Last Quarter
Jan 11
New

Hourly Weather History & Observations

Time (EST) Temp. Windchill Dew Point Humidity Pressure Visibility Wind Dir Wind Speed Gust Speed Precip Events Conditions
12:15 AM 23.0 °F - 19.4 °F 86% 30.37 in 10.0 mi Calm Calm - N/A   Clear
12:55 AM 23.0 °F - 19.4 °F 86% 30.37 in 10.0 mi Calm Calm - N/A   Partly Cloudy
1:35 AM 21.2 °F - 17.6 °F 86% 30.38 in 10.0 mi Calm Calm - N/A   Mostly Cloudy
1:55 AM 23.0 °F - 19.4 °F 86% 30.38 in 10.0 mi Calm Calm - N/A   Overcast
2:15 AM 24.8 °F - 19.4 °F 80% 30.38 in 10.0 mi Calm Calm - N/A   Overcast
2:35 AM 24.8 °F - 21.2 °F 86% 30.38 in 10.0 mi Calm Calm - N/A   Overcast
2:55 AM 24.8 °F - 21.2 °F 86% 30.37 in 10.0 mi Calm Calm - N/A   Overcast
3:15 AM 24.8 °F - 21.2 °F 86% 30.37 in 10.0 mi Calm Calm - N/A   Mostly Cloudy
3:35 AM 23.0 °F - 19.4 °F 86% 30.37 in 10.0 mi Calm Calm - N/A   Partly Cloudy
4:15 AM 21.2 °F - 17.6 °F 86% 30.37 in 10.0 mi Calm Calm - N/A   Clear
4:35 AM 21.2 °F - 19.4 °F 93% 30.37 in 10.0 mi Calm Calm - N/A   Clear
4:55 AM 21.2 °F 16.4 °F 17.6 °F 86% 30.37 in 10.0 mi WSW 3.5 mph - N/A   Clear
5:15 AM 23.0 °F 18.4 °F 19.4 °F 86% 30.38 in 10.0 mi WSW 3.5 mph - N/A   Clear
5:35 AM 21.2 °F 16.4 °F 17.6 °F 86% 30.38 in 10.0 mi SSW 3.5 mph - N/A   Mostly Cloudy
5:55 AM 21.2 °F 16.4 °F 19.4 °F 93% 30.38 in 10.0 mi SW 3.5 mph - N/A   Partly Cloudy
6:15 AM 24.8 °F 17.9 °F 19.4 °F 80% 30.39 in 2.0 mi WSW 5.8 mph - N/A   Overcast
7:35 AM 24.8 °F 16.9 °F 21.2 °F 86% 30.41 in 6.0 mi West 6.9 mph - N/A   Partly Cloudy
7:55 AM 24.8 °F - 21.2 °F 86% 30.41 in 7.0 mi Calm Calm - N/A   Clear
8:15 AM 24.8 °F 20.5 °F 21.2 °F 86% 30.41 in 8.0 mi SW 3.5 mph - N/A   Clear
9:15 AM 28.4 °F 24.6 °F 24.8 °F 86% 30.41 in 9.0 mi SW 3.5 mph - N/A   Clear
9:35 AM 28.4 °F 23.3 °F 24.8 °F 86% 30.41 in 10.0 mi WSW 4.6 mph - N/A   Clear
9:55 AM 30.2 °F 26.7 °F 24.8 °F 80% 30.41 in 10.0 mi SW 3.5 mph - N/A   Clear
10:15 AM 33.8 °F 30.8 °F 24.8 °F 70% 30.40 in 10.0 mi WSW 3.5 mph - N/A   Clear
10:35 AM 35.6 °F 32.8 °F 26.6 °F 70% 30.39 in 10.0 mi WSW 3.5 mph - N/A   Clear
10:55 AM 35.6 °F - 24.8 °F 65% 30.37 in 10.0 mi Calm Calm - N/A   Clear
11:15 AM 35.6 °F - 24.8 °F 65% 30.36 in 10.0 mi Calm Calm - N/A   Clear
11:55 AM 37.4 °F - 23.0 °F 56% 30.34 in 10.0 mi Calm Calm - N/A   Clear
12:15 PM 37.4 °F 32.1 °F 21.2 °F 52% 30.35 in 10.0 mi WSW 6.9 mph - N/A   Clear
12:35 PM 37.4 °F 31.4 °F 21.2 °F 52% 30.35 in 10.0 mi WSW 8.1 mph - N/A   Clear
12:55 PM 39.2 °F 35.9 °F 21.2 °F 49% 30.35 in 10.0 mi WSW 4.6 mph - N/A   Clear
1:15 PM 39.2 °F - 21.2 °F 49% 30.34 in 10.0 mi Calm Calm - N/A   Clear
1:35 PM 39.2 °F 35.0 °F 21.2 °F 49% 30.34 in 10.0 mi WSW 5.8 mph - N/A   Clear
2:15 PM 39.2 °F 33.6 °F 21.2 °F 49% 30.33 in 10.0 mi SW 8.1 mph - N/A   Clear
2:35 PM 39.2 °F 35.9 °F 21.2 °F 49% 30.33 in 10.0 mi West 4.6 mph - N/A   Clear
2:55 PM 39.2 °F 35.9 °F 21.2 °F 49% 30.33 in 10.0 mi SW 4.6 mph - N/A   Clear
3:15 PM 39.2 °F 35.0 °F 21.2 °F 49% 30.31 in 10.0 mi SSW 5.8 mph - N/A   Clear
3:55 PM 37.4 °F 34.9 °F 19.4 °F 48% 30.31 in 10.0 mi SW 3.5 mph - N/A   Clear
4:15 PM 33.8 °F - 21.2 °F 60% 30.31 in 10.0 mi Calm Calm - N/A   Clear
4:35 PM 32.0 °F - 21.2 °F 64% 30.31 in 10.0 mi Calm Calm - N/A   Clear
4:55 PM 30.2 °F - 19.4 °F 64% 30.31 in 10.0 mi Calm Calm - N/A   Clear
5:15 PM 30.2 °F - 21.2 °F 69% 30.31 in 10.0 mi Calm Calm - N/A   Clear
5:35 PM 28.4 °F - 19.4 °F 69% 30.31 in 10.0 mi Calm Calm - N/A   Clear
8:35 PM 26.6 °F 22.6 °F 21.2 °F 80% 30.28 in 10.0 mi WSW 3.5 mph - N/A   Clear
8:55 PM 26.6 °F - 21.2 °F 80% 30.27 in 10.0 mi Calm Calm - N/A   Clear
9:15 PM 24.8 °F - 19.4 °F 80% 30.26 in 10.0 mi Calm Calm - N/A   Clear
9:35 PM 24.8 °F - 19.4 °F 80% 30.26 in 10.0 mi Calm Calm - N/A   Clear
9:55 PM 24.8 °F - 19.4 °F 80% 30.25 in 10.0 mi Calm Calm - N/A   Clear
10:15 PM 24.8 °F - 19.4 °F 80% 30.24 in 10.0 mi Calm Calm - N/A   Clear
10:35 PM 24.8 °F 17.9 °F 19.4 °F 80% 30.24 in 10.0 mi WSW 5.8 mph - N/A   Clear
11:35 PM 26.6 °F 20.0 °F 21.2 °F 80% 30.22 in 10.0 mi WSW 5.8 mph - N/A   Clear
11:55 PM 28.4 °F 23.3 °F 23.0 °F 80% 30.22 in 10.0 mi WSW 4.6 mph - N/A   Clear